Regional Weather Roundup
Issued by NWS

Home | Current Version | Previous Version | Text Only | Print | Product List | Glossary On
Versions: 1 2 3 4 5 6 7 8 9 10 11 12 13 14 15 16 17 18 19 20 21 22 23 24 25 26 27 28 29 30 31 32 33 34 35 36 37 38 39 40 41 42 43 44 45 46 47 48 49 50
000
ASUS43 KDTX 030010
RWRMI
MICHIGAN HOURLY REGIONAL WEATHER ROUNDUP
NATIONAL WEATHER SERVICE DETROIT/PONTIAC MI
800 PM EDT TUE SEP 02 2014

NOTE: "FAIR" INDICATES FEW OR NO CLOUDS BELOW 12,000 FEET WITH NO
SIGNIFICANT WEATHER AND/OR OBSTRUCTION TO VISIBILITY.

MIZ047>049-052>055-059>063-066>070-074>076-081>083-030100-
SOUTHEAST LOWER MICHIGAN

CITY           SKY/WX    TMP DP  RH WIND       PRES   REMARKS
ADRIAN         CLEAR     74  61  63 N5        29.91S
6HR MIN TEMP:  72; 6HR MAX TEMP:  80; 6HR PCP: TRACE;

ALMA           CLEAR     72  57  59 CALM      29.89S
ANN ARBOR      CLEAR     71  59  65 W5        29.90R
BAD AXE        CLEAR     68  59  73 W3        29.89R
6HR MIN TEMP:  68; 6HR MAX TEMP:  77;

DETROIT CITY   CLEAR     77  57  50 NW3       29.89R
6HR MIN TEMP:  72; 6HR MAX TEMP:  82; 6HR PCP: TRACE;

DETROIT        PTCLDY    74  59  59 W6        29.90R
6HR MIN TEMP:  71; 6HR MAX TEMP:  79; 6HR PCP: TRACE;

FLINT          CLEAR     74  56  53 W5        29.89R
6HR MIN TEMP:  74; 6HR MAX TEMP:  81;

GROSSE ILE     CLEAR     73  63  68 CALM      29.88R
HILLSDALE      CLEAR     73  62  69 NW3       29.92S
6HR MIN TEMP:  71; 6HR MAX TEMP:  79;

HOWELL         CLEAR     71  59  67 CALM      29.91R
6HR MIN TEMP:  71; 6HR MAX TEMP:  76;


CITY           SKY/WX    TMP DP  RH WIND       PRES   REMARKS
JACKSON        CLEAR     71  59  65 CALM      29.91S
6HR MIN TEMP:  71; 6HR MAX TEMP:  78;

LAMBERTVILLE   CLEAR     72  66  83 CALM      29.91R
LANSING        CLEAR     72  56  57 W5        29.91R
6HR MIN TEMP:  72; 6HR MAX TEMP:  79;

LAPEER         NOT AVBL
MASON          CLEAR     72  58  60 W3        29.91R
MONROE         CLEAR     72  64  78 CALM      29.89R
MT. CLEMENS    PTCLDY    74  56  53 NW5       29.88R
6HR MIN TEMP:  73; 6HR MAX TEMP:  79; 6HR PCP: TRACE;

PONTIAC        PTCLDY    73  58  59 W6        29.90R
6HR MIN TEMP:  73; 6HR MAX TEMP:  78;

PORT HOPE        N/A     68  55  63 VRB3      29.86R
6HR MIN TEMP:  68; 6HR MAX TEMP:  78;

PORT HURON     CLEAR     66  63  88 MISG      29.89R
TRI CITIES     CLEAR     73  57  57 NW5       29.89R
6HR MIN TEMP:  73; 6HR MAX TEMP:  80;

YPSILANTI      CLEAR     76  62  62 NW5       29.90R
6HR MIN TEMP:  75; 6HR MAX TEMP:  83;

$$
MIZ043>046-050>051-056>058-064>065-071>073-077>080-030100-
SOUTHWEST LOWER MICHIGAN

CITY           SKY/WX    TMP DP  RH WIND       PRES   REMARKS
BATTLE CREEK   CLEAR     73  59  61 NW3       29.92S
6HR MIN TEMP:  73; 6HR MAX TEMP:  80;

BENTON HARBOR  CLEAR     70  63  78 CALM      29.89F
6HR MIN TEMP:  70; 6HR MAX TEMP:  78;

BIG RAPIDS     CLEAR     69  60  71 N5        29.89S
6HR MIN TEMP:  69; 6HR MAX TEMP:  77;

COLDWATER      CLEAR     73  61  65 CALM      29.91S
6HR MIN TEMP:  73; 6HR MAX TEMP:  81;

HOLLAND        CLEAR     73  61  65 SW3       29.90F
6HR MIN TEMP:  72; 6HR MAX TEMP:  78;

GRAND RAPIDS   PTCLDY    74  59  59 NW7       29.90F
6HR MIN TEMP:  74; 6HR MAX TEMP:  80;

KALAMAZOO      CLEAR     73  59  61 NW6       29.91S
6HR MIN TEMP:  73; 6HR MAX TEMP:  80;

MARSHALL       CLEAR     72  59  62 CALM      29.91S
MUSKEGON       PTCLDY    71  60  68 SW5       29.89F
6HR MIN TEMP:  71; 6HR MAX TEMP:  78;

$$
MIZ016>042-030100-
NORTHERN LOWER MICHIGAN

CITY           SKY/WX    TMP DP  RH WIND       PRES   REMARKS
ALPENA         CLEAR     70  54  56 CALM      29.85S
6HR MIN TEMP:  70; 6HR MAX TEMP:  75;

BEAVER ISLAND  CLOUDY    65  59  80 CALM      29.87S
BELLAIRE       CLEAR     69  57  64 CALM      29.86R
6HR MIN TEMP:  69; 6HR MAX TEMP:  75;

CADILLAC       CLEAR     68  58  69 SW5       29.90R
CHARLEVOIX     CLEAR     68  59  73 W9        29.89S
6HR MIN TEMP:  68; 6HR MAX TEMP:  73;

FRANKFORT      CLEAR     69  63  80 SW3       29.87S
GAYLORD        CLEAR     67  55  65 W3        29.88R
6HR MIN TEMP:  67; 6HR MAX TEMP:  72;

GRAYLING       CLEAR     69  56  63 W3        29.89R
HARBOR SPRINGS CLEAR     67  58  73 W6        29.86S
HOUGHTON LAKE  CLEAR     70  56  61 W8        29.89R
6HR MIN TEMP:  70; 6HR MAX TEMP:  75;

MANISTEE       CLEAR     72  57  60 SW5       29.88S
OSCODA         CLEAR     70  57  62 W3        29.86R
PELLSTON       PTCLDY    66  57  72 NW5       29.86R
6HR MIN TEMP:  66; 6HR MAX TEMP:  74;

TRAVERSE CITY  PTCLDY    72  56  57 SW6       29.85S
6HR MIN TEMP:  72; 6HR MAX TEMP:  76;

$$
MIZ007>008-015-030100-
EASTERN UPPER MICHIGAN

CITY           SKY/WX    TMP DP  RH WIND       PRES   REMARKS
KINROSS        CLOUDY    66  57  72 W5        29.84S
6HR MIN TEMP:  66; 6HR MAX TEMP:  75;

MACKINAC ISLAN MOCLDY    64  60  85 SW13G18   29.82F
NEWBERRY       PTCLDY    60  57  89 SW5       29.84R
6HR MIN TEMP:  60; 6HR MAX TEMP:  74; 6HR PCP:  0.06;

S. S. MARIE    CLOUDY    60  56  86 NW3       29.83R
6HR MIN TEMP:  57; 6HR MAX TEMP:  73; 6HR PCP:  0.21;

$$
MIZ004>006-011>014-085-030100-
CENTRAL UPPER MICHIGAN

CITY           SKY/WX    TMP DP  RH WIND       PRES   REMARKS
MANISTIQUE     CLEAR     63  58  84 SE3       29.84S
ESCANABA       CLEAR     70  55  60 CALM      29.83R
6HR MIN TEMP:  70; 6HR MAX TEMP:  75;

MENOMINEE      CLEAR     72  59  64 SW3       29.84R
6HR MIN TEMP:  66; 6HR MAX TEMP:  75;

SAWYER-GWINN   CLEAR     70  52  52 SW5       29.84S
$$
MIZ001>003-009>011-084-030100-
WESTERN UPPER MICHIGAN

CITY           SKY/WX    TMP DP  RH WIND       PRES   REMARKS
IRON MOUNTAIN  CLEAR     71  53  52 CALM      29.84S
6HR MIN TEMP:  71; 6HR MAX TEMP:  77;

HOUGHTON       PTCLDY    67  49  52 W7        29.80S
6HR MIN TEMP:  67; 6HR MAX TEMP:  73;

COPPER HARBOR    N/A     68  50  52 W6        29.78S
6HR MIN TEMP:  68; 6HR MAX TEMP:  75;

$$

ABBREVIATIONS USED IN REMARKS
   TC - TEMPERATURE IN CELSIUS
  WCI - WIND CHILL INDEX
   HX - HEAT INDEX
  VSB - VISIBILITY



USA.gov is the U.S. government's official web portal to all federal, state and local government web resources and services.